This demonstration page uses our WeatherBlox Daily Observations layout. Learn more.

Left ArrowRight Arrow

39.01783, -85.05884

Hourly Observations for June 5, 2018

Temp ( °F °C ) Dew Point ( °F °C ) Humidity (%) Winds ( mph kmh ) Pressure ( in mb ) Visibility ( mi km ) Precip ( " mm )
12:52 am 00:52 Mostly Cloudy 58 14.4 49 9.4 72 72 W 3 6 29.92 1013 10 16 N/A
1:52 am 01:52 Partly Cloudy 53 11.7 50 10 89 89 S 5 7 29.91 1013 10 16 N/A
2:52 am 02:52 Mostly Clear 54 12.2 51 10.6 90 90 N N/A 29.91 1013 10 16 N/A
3:52 am 03:52 Mostly Clear 53 11.7 50 10 89 89 N N/A 29.91 1013 10 16 N/A
4:52 am 04:52 Clear 53 11.7 51 10.6 93 93 SW 6 9 29.90 1012 10 16 N/A
5:52 am 05:52 Mostly Clear 52 11.1 49 9.4 89 89 SSW 5 7 29.90 1013 10 16 N/A
6:52 am 06:52 Mostly Sunny 54 12.2 51 10.6 90 90 N N/A 29.91 1013 10 16 N/A
7:52 am 07:52 Partly Cloudy 63 17.2 51 10.6 65 65 WSW 7 11 29.91 1013 10 16 N/A
8:52 am 08:52 Partly Cloudy 67 19.4 52 11.1 59 59 W 9 15 29.91 1013 10 16 N/A
9:52 am 09:52 Partly Cloudy 71 21.7 54 12.2 55 55 W 10 17 29.92 1013 10 16 N/A
10:52 am 10:52 Partly Cloudy 75 23.9 53 11.7 46 46 W 10 17 29.91 1013 10 16 N/A
11:52 am 11:52 Mostly Cloudy 76 24.4 51 10.6 42 42 W 15 24 29.89 1012 10 16 N/A
12:52 pm 12:52 Mostly Cloudy 78 25.6 52 11.1 40 40 W 16 26 29.87 1012 10 16 N/A
1:52 pm 13:52 Mostly Cloudy 79 26.1 53 11.7 41 41 W 16 26 29.85 1011 10 16 N/A
2:52 pm 14:52 Mostly Cloudy 81 27.2 53 11.7 38 38 W 14 22 29.83 1010 10 16 N/A
3:52 pm 15:52 Partly Cloudy 83 28.3 53 11.7 36 36 SW 13 20 29.82 1010 10 16 N/A
4:52 pm 16:52 Partly Cloudy 83 28.3 52 11.1 34 34 W 14 22 29.80 1009 10 16 N/A
5:52 pm 17:52 Partly Cloudy 82 27.8 51 10.6 34 34 W 15 24 29.78 1009 10 16 N/A
6:52 pm 18:52 Mostly Cloudy 81 27.2 51 10.6 35 35 W 12 19 29.78 1009 10 16 N/A
7:52 pm 19:52 Mostly Cloudy 79 26.1 51 10.6 38 38 WSW 9 15 29.78 1008 10 16 N/A
8:52 pm 20:52 Mostly Cloudy 75 23.9 54 12.2 48 48 WNW 5 7 29.79 1009 10 16 N/A
9:52 pm 21:52 Partly Cloudy 70 21.1 58 14.4 66 66 NE 8 13 29.80 1009 10 16 N/A
10:52 pm 22:52 Mostly Cloudy 69 20.6 59 15 70 70 N 3 6 29.82 1010 10 16 N/A
11:52 pm 23:52 Partly Cloudy 68 20 59 15 73 73 WNW 3 6 29.82 1010 10 16 N/A

Powered by AerisWeather